Location: La Granada
(41.3782°N, 1.7190°E)
Time: 10:12:57
(UTC+00:00)

Daily predictions for brighter satellites

Satellite Brightness Start Highest point End
(mag) Time Altitude Azimuth Time Altitude Azimuth Time Altitude Azimuth
GPS 2-04 Rocket1 4.1 16:47:40 10° WSW 16:51:26 35° S 16:55:11 10° ESE
Cosmos 2084 4.0 16:47:28 10° NNW 16:51:33 40° NE 16:55:47 10° ESE
Cosmos 1656 3.6 16:47:01 10° NNW 16:52:35 74° ENE 16:58:11 10° SSE
FengYun 1-2 T 4.3 16:47:11 10° SSE 16:52:39 60° ENE 16:58:07 10° N
H-2A R/B 3.0 16:49:38 10° ESE 16:53:48 25° ENE 16:57:55 10° NNE
Cosmos 2034 Rocket 4.0 16:47:55 10° S 16:54:02 75° E 17:00:11 10° N
Cosmos 1697 Rocket 2.9 16:58:28 10° NNW 17:03:52 46° ENE 17:09:14 10° SE
USA 267 3.7 16:59:25 10° NE 17:05:49 58° NW 17:12:11 10° WSW
Cosmos 1763 Rocket 3.4 17:00:50 10° SSW 17:05:53 86° ESE 17:11:00 10° NNE
Cosmos 2369 4.3 17:01:57 10° N 17:07:07 33° ENE 17:12:15 10° ESE
Cosmos 1939 Rocket 2.9 17:03:17 10° SSE 17:07:22 68° ENE 17:11:27 10° N
Cosmos 1980 Rocket 3.1 17:02:46 10° N 17:07:32 27° NE 17:12:14 10° ESE
BREEZE-M R/B 4.4 17:04:39 10° WNW 17:08:06 42° SSW 17:15:21 10° SE
COSMO-SKYMED 1 3.9 17:06:18 10° NE 17:09:39 21° E 17:12:58 10° SE
Cosmos 841 Rocket 3.9 17:06:36 10° S 17:11:25 41° ESE 17:16:13 10° NE
Meteor 1-25 Rocket 4.2 17:07:35 10° N 17:13:06 63° ENE 17:18:40 10° SSE
Cosmos 1812 4.0 17:10:36 10° SE 17:13:32 21° E 17:16:28 10° NE
Cosmos 1634 Rocket 4.2 17:09:40 10° SSE 17:15:44 52° E 17:21:51 10° NNE
SL-16 R/B 4.0 17:15:49 10° NNE 17:16:51 10° NE 17:17:26 10° NE
Cosmos 1937 Rocket 3.8 17:11:52 10° N 17:17:01 47° ENE 17:22:07 10° SE
Cosmos 2082 Rocket 2.6 17:13:34 10° S 17:18:52 42° ESE 17:24:10 10° NE
Cosmos 1633 Rocket 4.3 17:16:57 10° NNE 17:20:09 19° ENE 17:23:20 10° ESE
NOAA 6 4.0 17:15:30 10° SSE 17:20:38 84° ENE 17:25:48 10° NNW
USA 229 DEB 3.9 17:14:08 10° NNW 17:21:34 73° NE 17:29:23 10° SE
USA 229 3.9 17:14:14 10° NNW 17:21:39 73° NE 17:29:28 10° SE
CZ-4B DEB 4.2 17:19:44 10° SSE 17:25:13 70° ENE 17:30:42 10° N
CORIOLIS 4.1 17:19:57 10° SSE 17:25:19 82° ENE 17:30:46 10° NNW
Cosmos 990 Rocket 4.2 17:20:25 10° NNW 17:25:37 77° WSW 17:30:45 10° SSE
Cosmos 2026 Rocket 4.0 17:19:52 10° N 17:25:56 60° E 17:31:55 10° SSE
Okean O Rocket 2.5 17:24:54 10° SE 17:28:38 27° ENE 17:32:23 10° N
Cosmos 2195 Rocket 4.4 17:23:02 10° N 17:29:12 76° E 17:35:24 10° SSE
USA 276 2.0 17:26:42 10° WNW 17:29:50 89° S 17:32:47 11° ESE
Cosmos 372 Rocket 4.4 17:26:23 10° N 17:31:18 40° ENE 17:36:13 10° SE
Cosmos 2278 4.5 17:26:35 10° N 17:31:33 30° NE 17:36:29 10° ESE
Cosmos 1602 3.6 17:27:45 10° N 17:31:37 75° E 17:35:28 10° SSE
Cosmos 1743 Rocket 4.0 17:29:29 10° NNW 17:33:45 63° W 17:38:01 10° S
Cosmos 1151 Rocket 3.6 17:30:23 10° SSE 17:34:19 36° E 17:38:08 11° NNE
Cosmos 1782 2.7 17:30:21 10° S 17:34:19 70° E 17:38:18 10° NNE
COSMOS 2406 3.3 17:30:43 10° SSW 17:36:28 83° WNW 17:42:15 10° NNE
USA 234 3.2 17:31:17 10° SE 17:37:50 84° NE 17:44:24 10° NW
Meteor 2-14 Rocket 4.4 17:32:04 10° N 17:38:11 69° E 17:44:12 10° SSE
COSMOS 2455 2.8 17:32:17 10° SSW 17:38:16 75° ESE 17:43:55 12° NNE
ARGOS 3.5 17:37:11 10° SE 17:42:14 42° ENE 17:47:18 10° N
Cosmos 1833 Rocket 3.3 17:37:34 10° SW 17:43:05 57° WNW 17:48:39 10° NNE
NOSS 3-1 (A) 4.3 17:37:26 10° NW 17:45:11 80° WSW 17:54:07 10° SSE
Cosmos 1666 Rocket 3.9 17:40:59 10° N 17:45:14 43° ENE 17:49:25 10° SSE
Cosmos 1328 Rocket 4.1 17:44:34 10° SSE 17:48:38 37° E 17:50:52 22° NE
Cosmos 858 Rocket 4.4 17:43:38 10° NNW 17:48:57 83° ENE 17:54:13 10° SSE
CZ-2D R/B 3.2 17:46:04 10° S 17:49:54 83° WSW 17:53:45 10° NNW
ISS -2.6 17:47:03 10° NW 17:50:00 26° NNE 17:50:10 26° NNE
NOSS 2-2 (D) 4.5 17:46:11 10° NNW 17:51:30 58° NE 17:58:54 10° SE
NOSS 2-2 (E) 4.5 17:46:32 10° NNW 17:52:05 70° NE 17:59:54 10° SE
PAYLOAD B 4.3 17:46:37 10° SSE 17:52:14 88° WSW 17:57:52 10° NNW
Lacrosse 5 rocket 3.2 17:54:37 10° NNW 17:56:30 15° NNE 17:56:30 15° NNE
SKYMED 2 3.4 17:53:44 11° NNE 17:57:55 72° ESE 18:02:14 10° S
Cosmos 1570 Rocket 4.0 17:53:39 10° S 17:58:46 58° ESE 18:02:05 22° NNE
CZ-4B R/B 3.0 17:53:44 10° SSE 17:59:09 74° ENE 18:04:31 10° N
Meteor 2-21 Rocket 4.3 17:53:49 10° N 17:59:57 76° E 18:05:59 10° SSE
ATLAS CENTAUR R/B 3.8 17:50:39 10° WSW 18:00:13 45° NW 18:03:22 18° NNE
SL-08 RB Rocket 4.0 17:57:42 10° SE 18:02:03 42° ENE 18:06:25 10° N
CZ-2C R/B 3.4 18:00:00 10° S 18:02:08 14° SSE 18:02:58 13° SE
Landsat 5 3.4 18:00:26 29° NE 18:02:15 54° E 18:06:09 10° S
Cosmos 540 Rocket 4.2 17:57:50 10° SW 18:02:47 51° WNW 18:07:46 10° N
GEOS 3 Rocket 4.3 18:02:08 30° ENE 18:03:08 33° NE 18:07:43 10° NNW
Cosmos 1500 3.6 18:02:13 10° NNW 18:05:55 63° W 18:09:35 10° S
CZ-2C R/B 2.4 18:00:44 10° NNE 18:05:58 84° ESE 18:11:08 10° SSW
Cosmos 1814 Rocket 3.9 18:01:15 10° SSW 18:06:29 79° ESE 18:10:08 20° NNE
Cosmos 1818 4.3 18:04:11 10° NNW 18:09:02 31° NE 18:09:03 31° NE
Cosmos 44 Rocket 4.4 18:08:33 10° NNW 18:11:47 26° NNE 18:11:47 26° NNE
CZ-4C R/B 3.0 18:06:13 10° NNW 18:13:26 59° NE 18:20:10 17° SE
Sich 1 4.1 18:10:34 10° NNW 18:14:41 45° W 18:18:47 10° SSW
Cosmos 1900 4.2 18:12:29 10° SSW 18:17:16 62° ESE 18:18:20 49° ENE
Feng Yun 1-1 Rocket 4.4 18:12:12 10° SSE 18:17:59 58° ENE 18:23:45 10° N
Cosmos 2360 Rocket 4.4 18:22:04 10° N 18:22:13 10° NNE 18:22:13 10° NNE
deb Chang Zheng 4 4.0 18:22:07 10° S 18:26:21 61° W 18:30:38 10° NNW
Cosmos 1515 Rocket 4.4 18:25:14 10° S 18:28:01 36° SSE 18:28:01 36° SSE
GPS 2-04 Rocket1 4.0 18:26:40 10° WSW 18:30:22 32° S 18:30:51 31° S
Cosmos 2208 Rocket 4.0 18:26:06 10° SSW 18:31:28 90° W 18:33:45 37° NNE
H-2A R/B 3.4 18:28:09 10° SSW 18:33:01 40° W 18:37:48 10° NNW
Cosmos 1666 3.4 18:31:57 10° NNW 18:35:33 50° W 18:39:08 10° S
Cosmos 2322 Rocket 3.9 18:40:00 10° N 18:41:55 19° N 18:41:55 19° N
COSMO-SKYMED 1 4.1 18:42:21 12° N 18:45:51 34° WNW 18:49:45 10° SW
Cosmos 1980 Rocket 3.1 18:46:20 10° NW 18:51:44 47° WSW 18:57:04 10° S
Spot 2 4.4 18:47:11 10° SSE 18:52:18 85° WSW 18:57:28 10° NNW
Cosmos 2266 Rocket 3.9 18:46:22 10° N 18:52:48 87° E 18:59:13 10° S
Cosmos 921 Rocket 4.2 18:54:13 10° SSW 18:56:52 37° SW 18:56:52 37° SW
Meteor 2-15 Rocket 4.4 18:54:54 10° S 19:01:01 80° W 19:03:20 41° N
SL-16 R/B 3.5 18:56:38 10° NNW 18:59:21 28° N 18:59:21 28° N
Cosmos 2082 Rocket 3.9 18:58:08 10° WSW 19:03:04 29° NW 19:06:20 18° N
Okean O Rocket 3.6 19:01:03 10° SSW 19:04:53 28° W 19:08:45 10° NW
CZ-4C R/B 4.2 19:55:04 10° NW 20:02:00 38° WSW 20:05:34 27° SSW
